Hourly Data Report for March 03, 2015

All times are specified in Local Standard Time (LST). Add 1 hour to adjust for Daylight Saving Time where and when it is observed.

MIRAMICHI RCS
NEW BRUNSWICK

47°00'34.000" N
65°27'54.000" W
33.00 m
8100989
71744
ACQ

Download Data

Hourly Data (March 2015)
Hourly Data Report for March 3, 2015
TIME Temp Definition
°C
Dew Point Definition
°C
Rel Hum Definition
%
Wind Dir Definition
10's deg

Wind Spd Definition
km/h
Visibility Definition
km
Stn Press Definition
kPa
Hmdx Definition


Wind Chill Definition


Weather Definition


00:00 -8.1 -15.5 55 30 17   100.32   -15 LegendNANA
01:00 -10.3 -19.2 48 30 25   100.48   -19 LegendNANA
02:00 -12.3 -21.5 46 30 28   100.64   -22 LegendNANA
03:00 -13.8 -22.6 48 30 25   100.77   -24 LegendNANA
04:00 -14.9 -23.4 49 30 23   100.87   -25 LegendNANA
05:00 -15.8 -23.7 51 29 18   101.05   -25 LegendNANA
06:00 -16.0 -23.6 52 30 25   101.20   -26 LegendNANA
07:00 -16.7 -23.8 55 29 17   101.37   -26 LegendNANA
08:00 -16.4 -24.0 52 29 18   101.46   -25 LegendNANA
09:00 -15.2 -24.1 46 29 20   101.52   -24 LegendNANA
10:00 -14.0 -24.0 42 29 21   101.55   -23 LegendNANA
11:00 -12.5 -23.2 40 29 18   101.55   -21 LegendNANA
12:00 -11.1 -23.5 35 30 20   101.55   -19 LegendNANA
13:00 -9.7 -23.5 32 28 22   101.52   -18 LegendNANA
14:00 -8.1 -23.3 28 28 17   101.50   -15 LegendNANA
15:00 -7.2 -22.1 29 27 24   101.51   -15 LegendNANA
16:00 -6.4 -21.5 29 28 20   101.51   -13 LegendNANA
17:00 -6.4 -20.4 32 25 19   101.57   -13 LegendNANA
18:00 -8.1 -20.2 37 24 13   101.57   -14 LegendNANA
19:00 -9.7 -20.5 41 25 14   101.53   -16 LegendNANA
20:00 -10.9 -21.2 42 25 11   101.53   -17 LegendNANA
21:00 -12.4 -21.0 49 23 6   101.43   -16 LegendNANA
22:00 -13.2 -21.1 51 18 2   101.34   -15 LegendNANA
23:00 -12.4 -20.9 49 22 4   101.26   -15 LegendNANA

Notes on Data Quality.

Legend

  • E = Estimated
  • M = Missing
  • NA = Not Available
Date modified: